Regional Weather Roundup
Issued by NWS

Home | Current Version | Previous Version | Text Only | Print | Product List | Glossary Off
Versions: 1 2 3 4 5 6 7 8 9 10 11 12 13 14 15 16 17 18 19 20 21 22 23 24 25 26 27 28 29 30 31 32 33 34 35 36 37 38 39 40 41 42 43 44 45 46 47 48 49 50

000
ASUS43 KOAX 272302
RWRNE

WEATHER ROUNDUP FOR NEBRASKA
NATIONAL WEATHER SERVICE OMAHA NE
600 PM CDT SUN JUL 27 2014

NOTES: SATELLITE DATA IS BEING USED TO AUGMENT CLOUD COVER ABOVE
       12000 FEET.
       "FAIR" INDICATES FEW OR NO CLOUDS BELOW 12,000 FEET WITH NO
       SIGNIFICANT WEATHER AND/OR OBSTRUCTIONS TO VISIBILITY.

  * THESE STATIONS DO NOT REPORT WEATHER SUCH AS RAIN...SNOW OR FOG.

NEZ001>004-019>022-054>056-280000-
NEBRASKA PANHANDLE

CITY           SKY/WX    TMP DP  RH WIND       PRES   REMARKS
SCOTTSBLUFF    SUNNY     86  52  30 MISG      30.27F
ALLIANCE       MOSUNNY   87  47  24 N6        30.27F
CHADRON        SUNNY     86  48  26 E9        30.24S
KIMBALL        PTSUNNY   83  47  27 SE12      30.31F
SIDNEY         SUNNY     87  43  21 S6        30.31F
$$

NEZ057>060-069>072-079>082-280000-
SOUTHWEST NEBRASKA

CITY           SKY/WX    TMP DP  RH WIND       PRES   REMARKS
NORTH PLATTE   SUNNY     84  47  27 N6G17     30.21S
IMPERIAL       SUNNY     87  45  23 N8        30.25F
LEXINGTON      SUNNY     86  51  30 N8        30.20S
MCCOOK         SUNNY     90  48  23 VRB7      30.21S
OGALLALA       SUNNY     82  47  29 NE3       30.25S
$$

NEZ005>010-023>029-035>040-094-280000-
NORTH CENTRAL NEBRASKA

CITY           SKY/WX    TMP DP  RH WIND       PRES   REMARKS
VALENTINE      SUNNY     83  49  30 N13       30.23F
AINSWORTH      SUNNY     80  49  34 N16G25    30.23S
BROKEN BOW     SUNNY     83  49  30 N17G25    30.20S
O`NEILL        SUNNY     81  47  30 N16       30.19S
ORD            SUNNY     83  53  35 NW15G21   30.17S
THEDFORD       SUNNY     84  48  29 N13G20    30.24S
$$

NEZ041-046>049-061>064-073>077-083>087-280000-
SOUTH CENTRAL NEBRASKA

CITY           SKY/WX    TMP DP  RH WIND       PRES   REMARKS
GRAND ISLAND   SUNNY     86  52  30 N18       30.17S
AURORA         SUNNY     83  57  40 N13       30.16S
HASTINGS       SUNNY     84  50  30 N14       30.17S
HEBRON         SUNNY     85  49  28 N9        30.14F
HOLDREGE       SUNNY     84  53  33 N8        30.19S
KEARNEY *      SUNNY     86  48  26 NW16      30.18F
YORK           SUNNY     81  59  47 N15G22    30.15S
$$

NEZ011>018-030>034-042>045-280000-
NORTHEAST NEBRASKA

CITY           SKY/WX    TMP DP  RH WIND       PRES   REMARKS
NORFOLK        SUNNY     79  56  45 N18G25    30.15R
ALBION         SUNNY     79  55  42 N15       30.16S
BLAIR          SUNNY     76  56  48 N17G24    30.11S
COLUMBUS *     MOSUNNY   79  57  47 N10G17    30.14S
FREMONT        SUNNY     81  57  44 NW14G21   30.13S
WAYNE          PTSUNNY   77  60  54 N12G20    30.15S
$$

NEZ050>053-065>068-078-088>093-280000-
SOUTHEAST NEBRASKA

CITY           SKY/WX    TMP DP  RH WIND       PRES   REMARKS
LINCOLN        MOSUNNY   84  56  38 N18       30.13R
OMAHA EPPLEY   MOSUNNY   81  56  42 NW24G30   30.10R
BEATRICE       SUNNY     83  60  46 N15G21    30.12S
NEBRASKA CITY  SUNNY     79  54  41 N16       30.10S
PLATTSMOUTH    MOSUNNY   80  54  39 NW13G20   30.11R
$$

NEZ044-045-051>053-067-280000-
OMAHA AREA

CITY           SKY/WX    TMP DP  RH WIND       PRES   REMARKS
OMAHA EPPLEY   MOSUNNY   81  56  42 NW24G30   30.10R
BLAIR          SUNNY     76  56  48 N17G24    30.11S
FREMONT        SUNNY     81  57  44 NW14G21   30.13S
MILLARD        MOSUNNY   80  57  44 NW14G23   30.10S
OFFUTT AFB     SUNNY     81  56  43 NW15      30.09R
PLATTSMOUTH    MOSUNNY   80  54  39 NW13G20   30.11R
WAHOO          FAIR      80  56  43 N10G20    30.12S
$$



USA.gov is the U.S. government's official web portal to all federal, state and local government web resources and services.